SL-16 DEB, 29100

Orbit data source: Space-Track

SL-16 DEB, 29100 is space debris in LEO originally from a launch on Fri, 26 Mar 1993 UTC launched from the Tyuratam Missile And Space Complex (TTMTR). Debris objects in space refer to the collection of defunct objects orbiting the Earth. Examples of debris include non-operational satellites, rocket bodies, and fragments generated from explosions, collisions, or faulty payload assembly.

Loading next visibility...
Identifier
29100, 1993-016AP
Orbit
LEO
Country
Flag of CISCIS
Related business
Manufacturer
Unknown
Mission
Spacecraft
Bus & Motor
Unknown
Mass
Unknown
Launch date (UTC)
1993-03-26 (33 years ago)
Launch vehicle
Unknown
Launch site
Tyuratam Missile And Space Complex (TTMTR)
Object type
Payload
Rocket body
Debris
Shape & HBR
Unknown shape, 0.1 m
Radar Cross Section
Small (<0.1 m²)

Expand to show TLE details & history
Last TLE update: 3 days ago

TLE from 3 days ago
0 SL-16 DEB
1 29100U 93016AP  26171.12364309  .00000537  00000-0  30981-3 0  9995
2 29100  70.7352  66.7217 0073959  73.2191 287.7025 14.12355162231831
Epoch: 2026-06-20T02:58Z
TLE epoch observation values (Epoch: 2026-06-20T02:58:02.762Z)
Latitude
-0.00011°
Longitude
113.86737°
Altitude
837.803 km
Speed
7.442 km/s
True Right ascension
04h 26m 53s
True Declination
0° 00' 00"
Sunlit
Object was in daylight at epoch
Visualization orbit readout
Latitude
Unknown
Longitude
Unknown
Altitude
Unknown
Speed
Unknown
Apparent Right ascension
Unknown
Apparent Declination
Unknown
Sunlit
N/A
Visualization observer readout
Local Sidereal Time
04:00:01
Azimuth
Unknown
Elevation
Unknown
Doppler factor
Unknown
Orbital elements
Apogee altitude
902.73 km
Perigee altitude
795.824 km
Semi-major axis
7,227.414 km
Eccentricity
0.0074
Inclination
70.7352°
RAAN
66.7217°
Arg. of periapsis
73.2191°
True anomaly
286.89287°
Mean anomaly
287.7025°
Eccentric anomaly
287.29791°
Mean motion
3.53239 °/min
Orbital period
101.91 mins
BSTAR
0.00030981
Loading maneuver chart data...
Computing Atmospheric mass density...
Loading historical data...
Loading historical data...
Loading historical data...
Loading historical data...
Loading historical data...
Loading historical data...
Loading historical data...

Documentation

Showing up to 5 results
|